| time (UTC) | temp C | wind direction | speed KPH | gust KPH | rain 1hr cm | rain 24hr cm | rain mn cm | humidity % | barometer mb |
| 20260509035615 | 12 | 204 | 0.0 | 0.0 | 0.00 | 0.00 | 0.00 | 81 | 1029.7 |
| 20260509032615 | 12 | 201 | 0.0 | 0.0 | 0.00 | 0.00 | 0.00 | 77 | 1029.6 |
| 20260509025610 | 13 | 207 | 0.0 | 0.0 | 0.00 | 0.00 | 0.00 | 74 | 1029.1 |
| 20260509022606 | 14 | 220 | 0.0 | 0.0 | 0.00 | 0.00 | 0.00 | 70 | 1029.1 |
| 20260509015603 | 16 | 214 | 0.0 | 1.6 | 0.00 | 0.00 | 0.00 | 66 | 1028.6 |
| 20260509012600 | 16 | 203 | 1.6 | 1.6 | 0.00 | 0.00 | 0.00 | 61 | 1028.8 |
| 20260509005600 | 16 | 177 | 1.6 | 3.2 | 0.00 | 0.00 | 0.00 | 60 | 1029.1 |
| 20260509002559 | 16 | 212 | 1.6 | 3.2 | 0.00 | 0.00 | 0.00 | 61 | 1029.3 |
| 20260508235559 | 16 | 213 | 1.6 | 3.2 | 0.00 | 0.00 | 0.00 | 60 | 1029.1 |
| 20260508232554 | 16 | 216 | 1.6 | 3.2 | 0.00 | 0.00 | 0.00 | 59 | 1029.1 |
| 20260508225554 | 16 | 207 | 0.0 | 1.6 | 0.00 | 0.00 | 0.00 | 59 | 1029.2 |
| 20260508222549 | 16 | 227 | 0.0 | 1.6 | 0.00 | 0.00 | 0.00 | 58 | 1029.3 |
| 20260508215547 | 17 | 224 | 3.2 | 3.2 | 0.00 | 0.00 | 0.00 | 56 | 1029.1 |
| 20260508212544 | 17 | 249 | 3.2 | 3.2 | 0.00 | 0.00 | 0.00 | 58 | 1029.4 |
| 20260508205542 | 16 | 192 | 0.0 | 1.6 | 0.00 | 0.00 | 0.00 | 59 | 1029.2 |
| 20260508202537 | 15 | 223 | 1.6 | 1.6 | 0.00 | 0.00 | 0.00 | 63 | 1029.0 |
| 20260508195535 | 14 | 217 | 0.0 | 1.6 | 0.00 | 0.00 | 0.00 | 65 | 1029.1 |
| 20260508192532 | 14 | 219 | 1.6 | 1.6 | 0.00 | 0.00 | 0.00 | 68 | 1029.0 |
| 20260508185530 | 12 | 222 | 1.6 | 1.6 | 0.00 | 0.00 | 0.00 | 74 | 1028.9 |
| 20260508182528 | 12 | 220 | 1.6 | 1.6 | 0.00 | 0.00 | 0.00 | 77 | 1028.7 |
| 20260508175525 | 11 | 277 | 1.6 | 3.2 | 0.00 | 0.00 | 0.00 | 81 | 1028.6 |
| 20260508172524 | 11 | 262 | 1.6 | 3.2 | 0.00 | 0.00 | 0.00 | 80 | 1028.1 |
| 20260508165523 | 11 | 199 | 3.2 | 4.8 | 0.00 | 0.00 | 0.00 | 83 | 1027.6 |
| 20260508162521 | 11 | 154 | 1.6 | 3.2 | 0.00 | 0.00 | 0.00 | 83 | 1027.4 |
| 20260508155516 | 10 | 233 | 4.8 | 4.8 | 0.00 | 0.00 | 0.00 | 84 | 1027.3 |
| 20260508152515 | 10 | 203 | 1.6 | 1.6 | 0.00 | 0.00 | 0.00 | 87 | 1027.9 |
| 20260508145512 | 10 | 157 | 1.6 | 3.2 | 0.00 | 0.00 | 0.00 | 91 | 1027.4 |
| 20260508142512 | 8 | 192 | 0.0 | 0.0 | 0.00 | 0.00 | 0.00 | 97 | 1027.1 |
| 20260508135509 | 8 | 193 | 1.6 | 1.6 | 0.00 | 0.00 | 0.00 | 96 | 1026.6 |
| 20260508132509 | 8 | 200 | 3.2 | 3.2 | 0.00 | 0.00 | 0.00 | 99 | 1026.1 |
| 20260508125504 | 8 | 210 | 1.6 | 1.6 | 0.00 | 0.00 | 0.00 | 99 | 1026.0 |
| 20260508122501 | 8 | 204 | 0.0 | 0.0 | 0.00 | 0.00 | 0.00 | 99 | 1025.8 |
| 20260508115458 | 7 | 200 | 0.0 | 0.0 | 0.00 | 0.00 | 0.00 | 99 | 1025.7 |
| 20260508112456 | 7 | 192 | 1.6 | 1.6 | 0.00 | 0.00 | 0.00 | 99 | 1025.2 |
| 20260508105452 | 7 | 199 | 0.0 | 0.0 | 0.00 | 0.00 | 0.00 | 99 | 1024.9 |
| 20260508102448 | 7 | 204 | 0.0 | 0.0 | 0.00 | 0.00 | 0.00 | 99 | 1024.6 |
| 20260508095443 | 7 | 204 | 0.0 | 0.0 | 0.00 | 0.00 | 0.00 | 99 | 1024.5 |
| 20260508092443 | 9 | 200 | 0.0 | 0.0 | 0.00 | 0.00 | 0.00 | 97 | 1024.4 |
| 20260508085443 | 9 | 190 | 1.6 | 1.6 | 0.00 | 0.00 | 0.00 | 95 | 1024.4 |
| 20260508082441 | 8 | 201 | 0.0 | 0.0 | 0.00 | 0.00 | 0.00 | 99 | 1024.3 |
| 20260508075441 | 8 | 201 | 0.0 | 0.0 | 0.00 | 0.00 | 0.00 | 98 | 1024.0 |
| 20260508072441 | 9 | 194 | 0.0 | 0.0 | 0.00 | 0.00 | 0.00 | 96 | 1024.3 |
| 20260508065438 | 9 | 206 | 0.0 | 0.0 | 0.00 | 0.00 | 0.00 | 95 | 1024.3 |
| 20260508062435 | 9 | 200 | 0.0 | 0.0 | 0.00 | 0.00 | 0.00 | 94 | 1024.4 |
| 20260508055434 | 10 | 190 | 1.6 | 1.6 | 0.00 | 0.00 | 0.00 | 91 | 1024.3 |
| 20260508052433 | 11 | 196 | 1.6 | 1.6 | 0.00 | 0.00 | 0.00 | 87 | 1024.5 |
| 20260508045430 | 12 | 197 | 0.0 | 0.0 | 0.00 | 0.00 | 0.00 | 83 | 1024.4 |
| 20260508042429 | 12 | 200 | 0.0 | 0.0 | 0.00 | 0.00 | 0.00 | 79 | 1024.5 |